Philip, SD

4:06 AM MDT on June 27, 2017 (GMT -0600)
Philip

Weather History for KPHP - July, 2014

Change the Weather History Date:

Friday, July 11, 2014

  Actual Average Record
Temperature  
Mean Temperature 79 °F 74 °F  
Max Temperature 93 °F 89 °F 110 °F (1974)
Min Temperature 64 °F 60 °F 47 °F (1975)
Degree Days  
Heating Degree Days 0 0  
Month to date heating degree days 6 3  
Since 1 June heating degree days 84 66  
Since 1 July heating degree days 6 3  
Cooling Degree Days 14 9  
Month to date cooling degree days 73 91  
Year to date cooling degree days 169 241  
Since 1 June cooling degree days 129 214  
Growing Degree Days 28 (Base 50)    
Moisture  
Dew Point 65 °F    
Average Humidity 64    
Maximum Humidity 87    
Minimum Humidity 41    
Precipitation  
Precipitation 0.01 in 0.08 in 0.60 in (1992)
Month to date precipitation 0.01 0.87  
Year to date precipitation 8.83 10.72  
Sea Level Pressure  
Sea Level Pressure 29.92 in    
Wind  
Wind Speed 7 mph (NNW)    
Max Wind Speed 17 mph    
Max Gust Speed 24 mph    
Visibility 10 miles    
Events Rain , Thunderstorm    
T = Trace of Precipitation, MM = Missing Value Source: NWS Daily Summary

Daily Weather History Graph

Daily Weather History Graph

Search for Another Location

Airport or City:

Trip Planner

Search our weather history database for the weather conditions in past years. The results will help you decide how hot, cold, wet, or windy it might be!

Date:

Astronomy

Jul. 11, 2014 Rise Set
Actual Time 5:14 AM MDT 8:29 PM MDT
Civil Twilight 4:38 AM MDT 9:04 PM MDT
Nautical Twilight 3:52 AM MDT 9:50 PM MDT
Astronomical Twilight 2:56 AM MDT 10:46 PM MDT
Moon 7:38 PM MDT (7/11) 4:30 AM MDT (7/11)
Length of Visible Light 16h 26m
Length of Day
15h 15m
Waxing Gibbous, 99% of the Moon is Illuminated
Jul 11
Waxing Gibbous
Jul 12
Full
Jul 18
Last Quarter
Jul 26
New
Aug 3
First Quarter

Hourly Weather History & Observations

Time (MDT) Temp. Heat Index Dew Point Humidity Pressure Visibility Wind Dir Wind Speed Gust Speed Precip Events Conditions
12:55 AM 69.1 °F - 64.9 °F 87% 29.80 in 10.0 mi West 6.9 mph - N/A   Clear
1:55 AM 69.1 °F - 64.0 °F 84% 29.81 in 10.0 mi West 6.9 mph - N/A   Clear
2:55 AM 68.0 °F - 63.0 °F 84% 29.80 in 10.0 mi WNW 5.8 mph - N/A   Clear
3:55 AM 66.9 °F - 62.1 °F 84% 29.81 in 10.0 mi WSW 8.1 mph - N/A   Clear
4:55 AM 66.0 °F - 61.0 °F 84% 29.82 in 10.0 mi NW 5.8 mph - N/A   Scattered Clouds
5:55 AM 64.9 °F - 61.0 °F 87% 29.84 in 10.0 mi WSW 3.5 mph - N/A   Clear
6:55 AM 69.1 °F - 63.0 °F 81% 29.84 in 10.0 mi SW 4.6 mph - N/A   Clear
7:55 AM 75.0 °F - 64.0 °F 69% 29.85 in 10.0 mi West 3.5 mph - N/A   Clear
8:55 AM 80.1 °F 81.9 °F 64.9 °F 60% 29.87 in 10.0 mi SSW 3.5 mph - N/A   Clear
9:55 AM 86.0 °F 88.2 °F 66.0 °F 51% 29.87 in 10.0 mi Calm Calm - N/A   Clear
10:55 AM - - - N/A% 29.96 in - North - - N/A   Unknown
11:55 AM - - - N/A% 29.97 in - NE 15.0 mph 24.2 mph N/A   Unknown
12:55 PM 90.0 °F 91.7 °F 64.9 °F 43% 29.91 in 10.0 mi ENE 11.5 mph - N/A   Clear
1:55 PM 91.0 °F 93.0 °F 64.9 °F 42% 29.91 in 10.0 mi ENE 13.8 mph - N/A   Clear
2:55 PM 89.1 °F 91.3 °F 66.0 °F 46% 29.92 in 10.0 mi ENE 10.4 mph - N/A   Clear
3:55 PM 88.0 °F 89.3 °F 64.0 °F 45% 29.91 in 10.0 mi East 9.2 mph - N/A   Clear
4:55 PM 84.0 °F 86.3 °F 66.0 °F 55% 29.93 in 10.0 mi East 4.6 mph - N/A   Clear
5:55 PM 82.0 °F 84.9 °F 68.0 °F 62% 29.94 in 10.0 mi NE 3.5 mph - N/A   Clear
6:55 PM 81.0 °F 84.1 °F 69.1 °F 67% 29.94 in 10.0 mi NNE 6.9 mph - N/A   Clear
7:55 PM 80.1 °F 82.9 °F 69.1 °F 69% 29.97 in 10.0 mi ENE 5.8 mph - N/A   Mostly Cloudy
8:46 PM 78.1 °F - 70.0 °F 76% 30.04 in 10.0 mi East 3.5 mph - N/A Thunderstorm Partly Cloudy
8:55 PM 77.0 °F - 68.0 °F 74% 29.98 in 10.0 mi North - - N/A   Clear
9:09 PM 78.1 °F - 66.9 °F 68% 30.05 in 10.0 mi Variable 6.9 mph - N/A Thunderstorm Clear
9:27 PM 73.0 °F - 62.1 °F 68% 30.06 in 10.0 mi SW 11.5 mph - N/A   Mostly Cloudy
9:55 PM 72.0 °F - 63.0 °F 73% 30.01 in 10.0 mi West 10.4 mph - 0.00 in   Scattered Clouds
10:55 PM 68.0 °F - 63.0 °F 84% 30.06 in 10.0 mi North 5.8 mph - 0.00 in Rain Rain
11:55 PM 68.0 °F - 63.0 °F 84% 30.08 in 10.0 mi NW 9.2 mph - 0.01 in   Mostly Cloudy